Time,TemperatureF,DewpointF,PressureIn,WindDirection,WindDirectionDegrees,WindSpeedMPH,WindSpeedGustMPH,Humidity,HourlyPrecipIn,Conditions,Clouds,dailyrainin,SolarRadiationWatts/m^2,SoftwareType,DateUTC
2013-10-27 00:02:00,32.4,29.0,30.13,WNW,298,0.0,0.0,87,0.00,FEW,,0.00,0.0,WeatherDisplay:10.37,2013-10-27 05:02:00,
2013-10-27 00:07:00,32.3,28.9,30.13,WNW,298,0.0,0.0,87,0.00,FEW,FEW,0.00,0.0,WeatherDisplay:10.37,2013-10-27 05:07:00,
2013-10-27 00:12:00,32.2,28.8,30.13,WNW,298,0.0,0.0,87,0.00,CLR,CLR,0.00,0.0,WeatherDisplay:10.37,2013-10-27 05:12:00,
2013-10-27 00:17:00,32.1,28.9,30.13,WNW,298,0.0,0.0,88,0.00,CLR,CLR,0.00,0.0,WeatherDisplay:10.37,2013-10-27 05:17:00,
2013-10-27 00:22:00,32.0,28.8,30.12,WNW,298,0.0,0.0,88,0.00,CLR,CLR,0.00,0.0,WeatherDisplay:10.37,2013-10-27 05:22:00,
2013-10-27 00:27:00,32.3,29.1,30.11,WNW,298,0.0,0.0,88,0.00,CLR,CLR,0.00,0.0,WeatherDisplay:10.37,2013-10-27 05:27:00,
2013-10-27 00:32:00,32.3,28.9,30.11,WNW,298,0.0,0.0,87,0.00,CLR,,0.00,0.0,WeatherDisplay:10.37,2013-10-27 05:32:00,
2013-10-27 00:37:00,31.9,28.8,30.11,WNW,298,0.0,0.0,88,0.00,CLR,CLR,0.00,0.0,WeatherDisplay:10.37,2013-10-27 05:37:00,
2013-10-27 00:42:00,31.6,28.5,30.11,WNW,298,0.0,0.0,88,0.00,CLR,CLR,0.00,0.0,WeatherDisplay:10.37,2013-10-27 05:42:00,
2013-10-27 00:47:00,31.4,28.5,30.11,WNW,298,0.0,0.0,89,0.00,CLR,CLR,0.00,0.0,WeatherDisplay:10.37,2013-10-27 05:47:00,
2013-10-27 00:52:00,31.2,28.4,30.11,WNW,298,0.0,0.0,89,0.00,CLR,CLR,0.00,0.0,WeatherDisplay:10.37,2013-10-27 05:52:00,
2013-10-27 00:57:00,31.1,28.5,30.10,WNW,298,0.0,0.0,90,0.00,CLR,CLR,0.00,0.0,WeatherDisplay:10.37,2013-10-27 05:57:00,
2013-10-27 01:02:00,31.2,28.6,30.10,WNW,298,0.0,0.0,90,0.00,CLR,CLR,0.00,0.0,WeatherDisplay:10.37,2013-10-27 06:02:00,
2013-10-27 01:07:00,31.1,28.2,30.11,WNW,298,0.0,0.0,89,0.00,CLR,,0.00,0.0,WeatherDisplay:10.37,2013-10-27 06:07:00,
2013-10-27 01:12:00,31.2,28.6,30.10,WNW,298,0.0,0.0,90,0.00,CLR,CLR,0.00,0.0,WeatherDisplay:10.37,2013-10-27 06:12:00,
2013-10-27 01:17:00,31.1,28.5,30.10,WNW,298,0.0,0.0,90,0.00,CLR,CLR,0.00,0.0,WeatherDisplay:10.37,2013-10-27 06:17:00,
2013-10-27 01:22:00,31.0,28.4,30.09,WNW,298,0.0,0.0,90,0.00,CLR,CLR,0.00,0.0,WeatherDisplay:10.37,2013-10-27 06:22:00,
2013-10-27 01:27:00,30.8,28.2,30.09,WNW,298,0.0,0.0,90,0.00,CLR,,0.00,0.0,WeatherDisplay:10.37,2013-10-27 06:27:00,
2013-10-27 01:32:00,30.7,28.4,30.09,WNW,298,0.0,0.0,91,0.00,CLR,CLR,0.00,0.0,WeatherDisplay:10.37,2013-10-27 06:32:00,
2013-10-27 01:37:00,30.6,28.3,30.10,WNW,298,0.0,0.0,91,0.00,CLR,CLR,0.00,0.0,WeatherDisplay:10.37,2013-10-27 06:37:00,
2013-10-27 01:42:00,30.4,28.1,30.10,WNW,298,0.0,0.0,91,0.00,CLR,CLR,0.00,0.0,WeatherDisplay:10.37,2013-10-27 06:42:00,
2013-10-27 01:47:00,30.4,28.1,30.10,WNW,298,0.0,0.0,91,0.00,CLR,CLR,0.00,0.0,WeatherDisplay:10.37,2013-10-27 06:47:00,
2013-10-27 01:52:00,30.1,27.8,30.10,WNW,298,0.0,0.0,91,0.00,CLR,CLR,0.00,0.0,WeatherDisplay:10.37,2013-10-27 06:52:00,
2013-10-27 01:57:00,30.0,28.0,30.10,WNW,298,0.0,0.0,92,0.00,CLR,CLR,0.00,0.0,WeatherDisplay:10.37,2013-10-27 06:57:00,
2013-10-27 02:02:00,30.0,28.0,30.10,WNW,298,0.0,0.0,92,0.00,CLR,,0.00,0.0,WeatherDisplay:10.37,2013-10-27 07:02:00,
2013-10-27 02:07:00,30.0,28.0,30.09,WNW,298,0.0,0.0,92,0.00,CLR,CLR,0.00,0.0,WeatherDisplay:10.37,2013-10-27 07:07:00,
2013-10-27 02:12:00,29.9,27.9,30.09,WNW,298,0.0,0.0,92,0.00,CLR,CLR,0.00,0.0,WeatherDisplay:10.37,2013-10-27 07:12:00,
2013-10-27 02:17:00,30.1,28.1,30.09,WNW,298,0.0,0.0,92,0.00,CLR,CLR,0.00,0.0,WeatherDisplay:10.37,2013-10-27 07:17:00,
2013-10-27 02:22:00,30.2,28.2,30.09,WNW,298,0.0,0.0,92,0.00,CLR,CLR,0.00,0.0,WeatherDisplay:10.37,2013-10-27 07:22:00,
2013-10-27 02:27:00,30.1,28.1,30.08,WNW,298,0.0,0.0,92,0.00,CLR,CLR,0.00,0.0,WeatherDisplay:10.37,2013-10-27 07:27:00,
2013-10-27 02:32:00,29.9,27.9,30.08,WNW,298,0.0,0.0,92,0.00,CLR,CLR,0.00,0.0,WeatherDisplay:10.37,2013-10-27 07:32:00,
2013-10-27 02:37:00,29.7,27.7,30.08,WNW,298,0.0,0.0,92,0.00,CLR,CLR,0.00,0.0,WeatherDisplay:10.37,2013-10-27 07:37:00,
2013-10-27 02:42:00,29.5,27.5,30.09,WNW,298,0.0,0.0,92,0.00,CLR,CLR,0.00,0.0,WeatherDisplay:10.37,2013-10-27 07:42:00,
2013-10-27 02:47:00,29.4,27.4,30.08,WNW,298,0.0,0.0,92,0.00,CLR,CLR,0.00,0.0,WeatherDisplay:10.37,2013-10-27 07:47:00,
2013-10-27 02:52:00,29.4,27.4,30.08,WNW,298,0.0,0.0,92,0.00,CLR,CLR,0.00,0.0,WeatherDisplay:10.37,2013-10-27 07:52:00,
2013-10-27 02:57:00,29.8,28.0,30.08,WNW,298,0.0,0.0,93,0.00,CLR,CLR,0.00,0.0,WeatherDisplay:10.37,2013-10-27 07:57:00,
2013-10-27 03:02:00,29.5,27.5,30.09,WNW,298,0.0,0.0,92,0.00,CLR,CLR,0.00,0.0,WeatherDisplay:10.37,2013-10-27 08:02:00,
2013-10-27 03:07:00,29.4,27.4,30.09,WNW,297,0.0,0.0,92,0.00,CLR,CLR,0.00,0.0,WeatherDisplay:10.37,2013-10-27 08:07:00,
2013-10-27 03:12:00,29.4,27.4,30.08,WNW,297,0.0,0.0,92,0.00,CLR,CLR,0.00,0.0,WeatherDisplay:10.37,2013-10-27 08:12:00,
2013-10-27 03:17:00,29.3,27.3,30.08,WNW,297,0.0,0.0,92,0.00,CLR,CLR,0.00,0.0,WeatherDisplay:10.37,2013-10-27 08:17:00,
2013-10-27 03:22:00,29.2,27.2,30.08,WNW,297,0.0,0.0,92,0.00,CLR,CLR,0.00,0.0,WeatherDisplay:10.37,2013-10-27 08:22:00,
2013-10-27 03:27:00,29.1,27.3,30.07,WNW,297,0.0,0.0,93,0.00,CLR,CLR,0.00,0.0,WeatherDisplay:10.37,2013-10-27 08:27:00,
2013-10-27 03:32:00,29.0,27.0,30.07,WNW,297,0.0,0.0,92,0.00,CLR,CLR,0.00,0.0,WeatherDisplay:10.37,2013-10-27 08:32:00,
2013-10-27 03:37:00,29.0,27.2,30.08,WNW,297,0.0,0.0,93,0.00,CLR,CLR,0.00,0.0,WeatherDisplay:10.37,2013-10-27 08:37:00,
2013-10-27 03:42:00,29.1,27.3,30.08,WNW,297,0.0,0.0,93,0.00,CLR,CLR,0.00,0.0,WeatherDisplay:10.37,2013-10-27 08:42:00,
2013-10-27 03:47:00,28.9,27.1,30.08,WNW,297,0.0,0.0,93,0.00,CLR,CLR,0.00,0.0,WeatherDisplay:10.37,2013-10-27 08:47:00,
2013-10-27 03:52:00,28.9,27.1,30.08,WNW,297,0.0,0.0,93,0.00,CLR,CLR,0.00,0.0,WeatherDisplay:10.37,2013-10-27 08:52:00,
2013-10-27 03:57:00,28.9,27.1,30.08,WNW,297,0.0,0.0,93,0.00,CLR,CLR,0.00,0.0,WeatherDisplay:10.37,2013-10-27 08:57:00,
2013-10-27 04:02:00,28.8,27.0,30.07,WNW,297,0.0,0.0,93,0.00,CLR,CLR,0.00,0.0,WeatherDisplay:10.37,2013-10-27 09:02:00,
2013-10-27 04:07:00,28.8,27.0,30.07,WNW,297,0.0,0.0,93,0.00,CLR,CLR,0.00,0.0,WeatherDisplay:10.37,2013-10-27 09:07:00,
2013-10-27 04:12:00,28.9,27.1,30.07,WNW,297,0.0,0.0,93,0.00,CLR,CLR,0.00,0.0,WeatherDisplay:10.37,2013-10-27 09:12:00,
2013-10-27 04:17:00,28.8,27.0,30.07,WNW,297,0.0,0.0,93,0.00,CLR,CLR,0.00,0.0,WeatherDisplay:10.37,2013-10-27 09:17:00,
2013-10-27 04:22:00,28.8,27.0,30.07,WNW,297,0.0,0.0,93,0.00,CLR,CLR,0.00,0.0,WeatherDisplay:10.37,2013-10-27 09:22:00,
2013-10-27 04:27:00,29.0,27.2,30.07,WNW,297,0.0,0.0,93,0.00,CLR,CLR,0.00,0.0,WeatherDisplay:10.37,2013-10-27 09:27:00,
2013-10-27 04:32:00,28.7,26.7,30.07,WNW,297,0.0,0.0,92,0.00,CLR,CLR,0.00,0.0,WeatherDisplay:10.37,2013-10-27 09:32:00,
2013-10-27 04:37:00,28.6,26.6,30.07,WNW,297,0.0,0.0,92,0.00,CLR,CLR,0.00,0.0,WeatherDisplay:10.37,2013-10-27 09:37:00,
2013-10-27 04:42:00,28.7,26.9,30.07,WNW,297,0.0,0.0,93,0.00,CLR,CLR,0.00,0.0,WeatherDisplay:10.37,2013-10-27 09:42:00,
2013-10-27 04:47:00,28.6,26.6,30.07,WNW,297,0.0,0.0,92,0.00,CLR,CLR,0.00,0.0,WeatherDisplay:10.37,2013-10-27 09:47:00,
2013-10-27 04:52:00,28.4,26.4,30.07,WNW,297,0.0,0.0,92,0.00,CLR,CLR,0.00,0.0,WeatherDisplay:10.37,2013-10-27 09:52:00,
2013-10-27 04:57:00,28.4,26.6,30.07,WNW,297,0.0,0.0,93,0.00,CLR,CLR,0.00,0.0,WeatherDisplay:10.37,2013-10-27 09:57:00,
2013-10-27 05:02:00,28.3,26.5,30.07,WNW,297,0.0,0.0,93,0.00,CLR,CLR,0.00,0.0,WeatherDisplay:10.37,2013-10-27 10:02:00,
2013-10-27 05:07:00,28.2,26.5,30.07,WNW,297,0.0,0.0,93,0.00,CLR,CLR,0.00,0.0,WeatherDisplay:10.37,2013-10-27 10:07:00,
2013-10-27 05:12:00,28.1,26.4,30.06,WNW,297,0.0,0.0,93,0.00,CLR,CLR,0.00,0.0,WeatherDisplay:10.37,2013-10-27 10:12:00,
2013-10-27 05:17:00,28.2,26.4,30.07,WNW,297,0.0,0.0,93,0.00,CLR,CLR,0.00,0.0,WeatherDisplay:10.37,2013-10-27 10:17:00,
2013-10-27 05:22:00,28.1,26.3,30.06,WNW,297,0.0,0.0,93,0.00,CLR,CLR,0.00,0.0,WeatherDisplay:10.37,2013-10-27 10:22:00,
2013-10-27 05:27:00,28.1,26.3,30.06,WNW,297,0.0,0.0,93,0.00,CLR,CLR,0.00,0.0,WeatherDisplay:10.37,2013-10-27 10:27:00,
2013-10-27 05:32:00,28.1,26.3,30.06,WNW,297,0.0,0.0,93,0.00,CLR,CLR,0.00,0.0,WeatherDisplay:10.37,2013-10-27 10:32:00,
2013-10-27 05:37:00,28.1,26.3,30.06,WNW,297,0.0,0.0,93,0.00,CLR,CLR,0.00,0.0,WeatherDisplay:10.37,2013-10-27 10:37:00,
2013-10-27 05:42:00,28.0,26.2,30.06,WNW,297,0.0,0.0,93,0.00,CLR,CLR,0.00,0.0,WeatherDisplay:10.37,2013-10-27 10:42:00,
2013-10-27 05:47:00,28.0,26.2,30.06,WNW,297,0.0,0.0,93,0.00,CLR,CLR,0.00,0.0,WeatherDisplay:10.37,2013-10-27 10:47:00,
2013-10-27 05:52:00,27.9,26.1,30.06,WNW,297,0.0,0.0,93,0.00,CLR,CLR,0.00,0.0,WeatherDisplay:10.37,2013-10-27 10:52:00,
2013-10-27 05:57:00,27.9,26.1,30.06,WNW,297,0.0,0.0,93,0.00,CLR,,0.00,0.0,WeatherDisplay:10.37,2013-10-27 10:57:00,
2013-10-27 06:02:00,27.9,26.1,30.06,WNW,297,0.0,0.0,93,0.00,CLR,CLR,0.00,0.0,WeatherDisplay:10.37,2013-10-27 11:02:00,
2013-10-27 06:07:00,28.0,26.2,30.06,WNW,297,0.0,0.0,93,0.00,CLR,CLR,0.00,0.0,WeatherDisplay:10.37,2013-10-27 11:07:00,
2013-10-27 06:12:00,27.9,26.1,30.06,WNW,297,0.0,0.0,93,0.00,CLR,CLR,0.00,0.0,WeatherDisplay:10.37,2013-10-27 11:12:00,
2013-10-27 06:17:00,27.9,26.2,30.06,WNW,297,0.0,0.0,93,0.00,CLR,CLR,0.00,0.0,WeatherDisplay:10.37,2013-10-27 11:17:00,
2013-10-27 06:22:00,27.8,26.0,30.06,WNW,297,0.0,0.0,93,0.00,CLR,CLR,0.00,0.0,WeatherDisplay:10.37,2013-10-27 11:22:00,
2013-10-27 06:27:00,27.8,26.0,30.06,WNW,297,0.0,0.0,93,0.00,CLR,CLR,0.00,0.0,WeatherDisplay:10.37,2013-10-27 11:27:00,
2013-10-27 06:32:00,27.7,25.9,30.06,WNW,297,0.0,0.0,93,0.00,CLR,CLR,0.00,0.0,WeatherDisplay:10.37,2013-10-27 11:32:00,
2013-10-27 06:37:00,27.7,25.9,30.06,WNW,297,0.0,0.0,93,0.00,CLR,CLR,0.00,0.0,WeatherDisplay:10.37,2013-10-27 11:37:00,
2013-10-27 06:42:00,27.8,26.0,30.06,WNW,297,0.0,0.0,93,0.00,CLR,CLR,0.00,0.0,WeatherDisplay:10.37,2013-10-27 11:42:00,
2013-10-27 06:47:00,27.7,26.0,30.06,WNW,297,0.0,0.0,93,0.00,CLR,CLR,0.00,0.0,WeatherDisplay:10.37,2013-10-27 11:47:00,
2013-10-27 06:52:00,27.8,26.0,30.06,WNW,297,0.0,0.0,93,0.00,CLR,,0.00,0.0,WeatherDisplay:10.37,2013-10-27 11:52:00,
2013-10-27 06:57:00,27.6,25.9,30.06,WNW,297,0.0,0.0,93,0.00,CLR,CLR,0.00,0.0,WeatherDisplay:10.37,2013-10-27 11:57:00,
2013-10-27 07:02:00,27.8,26.0,30.06,WNW,297,0.0,0.0,93,0.00,CLR,CLR,0.00,0.0,WeatherDisplay:10.37,2013-10-27 12:02:00,
2013-10-27 07:07:00,27.7,25.9,30.05,WNW,297,0.0,0.0,93,0.00,CLR,CLR,0.00,0.0,WeatherDisplay:10.37,2013-10-27 12:07:00,
2013-10-27 07:12:00,27.6,25.8,30.05,WNW,297,0.0,0.0,93,0.00,CLR,,0.00,0.0,WeatherDisplay:10.37,2013-10-27 12:12:00,
2013-10-27 07:17:00,27.5,25.7,30.05,WNW,297,0.0,0.0,93,0.00,CLR,,0.00,0.0,WeatherDisplay:10.37,2013-10-27 12:17:00,
2013-10-27 07:23:00,27.5,25.7,30.05,WNW,297,0.0,0.0,93,0.00,CLR,,0.00,0.0,WeatherDisplay:10.37,2013-10-27 12:23:00,
2013-10-27 07:28:00,27.4,25.6,30.05,WNW,297,0.0,0.0,93,0.00,CLR,,0.00,0.0,WeatherDisplay:10.37,2013-10-27 12:28:00,
2013-10-27 07:33:00,27.5,25.7,30.05,WNW,297,0.0,0.0,93,0.00,CLR,,0.00,0.0,WeatherDisplay:10.37,2013-10-27 12:33:00,
2013-10-27 07:38:00,27.7,25.9,30.05,WNW,297,0.0,0.0,93,0.00,CLR,,0.00,0.0,WeatherDisplay:10.37,2013-10-27 12:38:00,
2013-10-27 07:43:00,27.7,25.9,30.05,WNW,297,0.0,0.0,93,0.00,CLR,,0.00,0.0,WeatherDisplay:10.37,2013-10-27 12:43:00,
2013-10-27 07:48:00,27.8,26.0,30.05,WNW,297,0.0,0.0,93,0.00,CLR,,0.00,5.0,WeatherDisplay:10.37,2013-10-27 12:48:00,
2013-10-27 07:54:00,27.8,26.0,30.05,WNW,297,0.0,0.0,93,0.00,CLR,,0.00,7.0,WeatherDisplay:10.37,2013-10-27 12:54:00,
2013-10-27 07:59:00,27.9,26.1,30.05,WNW,297,0.0,0.0,93,0.00,CLR,,0.00,9.0,WeatherDisplay:10.37,2013-10-27 12:59:00,
2013-10-27 08:04:00,28.1,26.3,30.05,WNW,297,0.0,0.0,93,0.00,CLR,,0.00,11.0,WeatherDisplay:10.37,2013-10-27 13:04:00,
2013-10-27 08:09:00,28.2,26.4,30.05,WNW,297,0.0,0.0,93,0.00,CLR,,0.00,12.0,WeatherDisplay:10.37,2013-10-27 13:09:00,
2013-10-27 08:15:00,28.2,26.4,30.06,WNW,297,0.0,0.0,93,0.00,CLR,,0.00,16.0,WeatherDisplay:10.37,2013-10-27 13:15:00,
2013-10-27 08:20:00,28.3,26.5,30.06,WNW,297,0.0,0.0,93,0.00,CLR,,0.00,18.0,WeatherDisplay:10.37,2013-10-27 13:20:00,
2013-10-27 08:25:00,28.6,26.8,30.06,WNW,297,0.0,0.0,93,0.00,CLR,,0.00,19.0,WeatherDisplay:10.37,2013-10-27 13:25:00,
2013-10-27 08:30:00,28.9,27.1,30.06,WNW,297,0.0,0.0,93,0.00,CLR,,0.00,23.0,WeatherDisplay:10.37,2013-10-27 13:30:00,
2013-10-27 08:36:00,29.6,27.6,30.05,WNW,297,0.0,0.0,92,0.00,CLR,,0.00,25.0,WeatherDisplay:10.37,2013-10-27 13:36:00,
2013-10-27 08:41:00,30.3,28.0,30.05,WNW,297,0.0,1.2,91,0.00,CLR,,0.00,26.0,WeatherDisplay:10.37,2013-10-27 13:41:00,
2013-10-27 08:46:00,30.9,28.3,30.05,WNW,297,0.0,0.0,90,0.00,CLR,,0.00,26.0,WeatherDisplay:10.37,2013-10-27 13:46:00,
2013-10-27 08:51:00,31.6,28.5,30.05,WNW,297,0.3,2.3,88,0.00,CLR,,0.00,28.0,WeatherDisplay:10.37,2013-10-27 13:51:00,
2013-10-27 08:57:00,32.4,28.7,30.05,WNW,297,0.0,2.3,86,0.00,CLR,,0.00,44.0,WeatherDisplay:10.37,2013-10-27 13:57:00,
2013-10-27 09:02:00,33.0,29.3,30.05,WNW,297,0.0,0.0,86,0.00,CLR,,0.00,69.0,WeatherDisplay:10.37,2013-10-27 14:02:00,
2013-10-27 09:07:00,33.2,28.9,30.05,WNW,297,0.0,2.0,84,0.00,CLR,CLR,0.00,42.0,WeatherDisplay:10.37,2013-10-27 14:07:00,
2013-10-27 09:12:00,33.2,29.2,30.05,WNW,297,0.0,0.0,85,0.00,CLR,CLR,0.00,53.0,WeatherDisplay:10.37,2013-10-27 14:12:00,
2013-10-27 09:17:00,33.5,28.9,30.05,West,275,2.0,7.0,83,0.00,CLR,CLR,0.00,46.0,WeatherDisplay:10.37,2013-10-27 14:17:00,
2013-10-27 09:22:00,33.9,29.0,30.05,SE,131,1.0,2.0,82,0.00,CLR,CLR,0.00,40.0,WeatherDisplay:10.37,2013-10-27 14:22:00,
2013-10-27 09:27:00,34.2,29.0,30.05,SE,131,1.0,4.0,81,0.00,CLR,CLR,0.00,62.0,WeatherDisplay:10.37,2013-10-27 14:27:00,
2013-10-27 09:32:00,34.5,29.6,30.04,SE,132,0.0,2.0,82,0.00,CLR,CLR,0.00,39.0,WeatherDisplay:10.37,2013-10-27 14:32:00,
2013-10-27 09:37:00,35.0,29.8,30.04,SE,145,1.0,3.0,81,0.00,CLR,CLR,0.00,35.0,WeatherDisplay:10.37,2013-10-27 14:37:00,
2013-10-27 09:42:00,35.6,30.1,30.04,SE,141,1.0,5.0,80,0.00,CLR,CLR,0.00,37.0,WeatherDisplay:10.37,2013-10-27 14:42:00,
2013-10-27 09:47:00,36.2,30.3,30.04,SE,136,1.0,4.0,79,0.00,CLR,CLR,0.00,37.0,WeatherDisplay:10.37,2013-10-27 14:47:00,
2013-10-27 09:52:00,36.7,30.8,30.04,SE,140,0.0,0.0,79,0.00,CLR,,0.00,37.0,WeatherDisplay:10.37,2013-10-27 14:52:00,
2013-10-27 09:57:00,37.2,30.9,30.03,SE,140,1.0,2.0,78,0.00,CLR,CLR,0.00,53.0,WeatherDisplay:10.37,2013-10-27 14:57:00,
2013-10-27 10:02:00,37.8,31.6,30.03,SE,140,0.1,2.3,78,0.00,CLR,,0.00,40.0,WeatherDisplay:10.37,2013-10-27 15:02:00,
2013-10-27 10:07:00,38.7,32.1,30.03,SE,130,0.0,1.2,77,0.00,CLR,,0.00,42.0,WeatherDisplay:10.37,2013-10-27 15:07:00,
2013-10-27 10:13:00,39.7,32.1,30.03,SE,134,1.2,8.1,74,0.00,CLR,,0.00,56.0,WeatherDisplay:10.37,2013-10-27 15:13:00,
2013-10-27 10:18:00,40.3,32.0,30.03,SE,134,0.0,2.3,72,0.00,CLR,,0.00,40.0,WeatherDisplay:10.37,2013-10-27 15:18:00,
2013-10-27 10:23:00,41.0,32.3,30.03,SE,134,0.0,0.0,71,0.00,CLR,,0.00,123.0,WeatherDisplay:10.37,2013-10-27 15:23:00,
2013-10-27 10:28:00,41.6,32.5,30.02,SE,134,1.3,2.3,70,0.00,CLR,,0.00,258.0,WeatherDisplay:10.37,2013-10-27 15:28:00,
2013-10-27 10:34:00,42.2,33.1,30.02,SSE,152,1.5,3.5,70,0.00,CLR,,0.00,127.0,WeatherDisplay:10.37,2013-10-27 15:34:00,
2013-10-27 10:39:00,42.9,33.1,30.02,SE,132,2.5,3.5,68,0.00,CLR,,0.00,181.0,WeatherDisplay:10.37,2013-10-27 15:39:00,
2013-10-27 10:44:00,43.5,33.3,30.02,SE,141,1.5,3.5,67,0.00,CLR,,0.00,374.0,WeatherDisplay:10.37,2013-10-27 15:44:00,
2013-10-27 10:49:00,44.0,33.4,30.02,SE,131,0.7,3.5,66,0.00,CLR,,0.00,352.0,WeatherDisplay:10.37,2013-10-27 15:49:00,
2013-10-27 10:55:00,44.9,33.8,30.02,SSE,152,1.7,3.5,65,0.00,CLR,,0.00,276.0,WeatherDisplay:10.37,2013-10-27 15:55:00,
2013-10-27 11:00:00,45.5,34.0,30.02,ESE,109,0.6,5.8,64,0.00,CLR,,0.00,209.0,WeatherDisplay:10.37,2013-10-27 16:00:00,
2013-10-27 11:05:00,46.1,34.2,30.01,SSE,152,2.8,4.6,63,0.00,CLR,,0.00,318.0,WeatherDisplay:10.37,2013-10-27 16:05:00,
2013-10-27 11:10:00,46.4,33.7,30.01,SSE,154,4.3,9.2,61,0.00,CLR,,0.00,169.0,WeatherDisplay:10.37,2013-10-27 16:10:00,
2013-10-27 11:16:00,46.9,33.7,30.01,SSE,148,1.8,3.5,60,0.00,CLR,,0.00,46.0,WeatherDisplay:10.37,2013-10-27 16:16:00,
2013-10-27 11:21:00,47.4,33.8,30.01,East,83,1.1,5.8,59,0.00,CLR,,0.00,53.0,WeatherDisplay:10.37,2013-10-27 16:21:00,
2013-10-27 11:26:00,48.2,34.5,30.01,SSE,149,0.5,2.3,59,0.00,CLR,,0.00,44.0,WeatherDisplay:10.37,2013-10-27 16:26:00,
2013-10-27 11:31:00,48.9,33.9,30.01,NE,47,0.7,5.8,56,0.00,CLR,,0.00,47.0,WeatherDisplay:10.37,2013-10-27 16:31:00,
2013-10-27 11:37:00,49.4,34.3,30.01,NE,48,0.4,4.6,56,0.00,CLR,,0.00,44.0,WeatherDisplay:10.37,2013-10-27 16:37:00,
2013-10-27 11:42:00,49.9,35.3,30.00,East,79,2.0,3.5,57,0.00,CLR,,0.00,42.0,WeatherDisplay:10.37,2013-10-27 16:42:00,
2013-10-27 11:47:00,50.3,33.8,30.00,East,100,2.0,8.0,53,0.00,CLR,CLR,0.00,46.0,WeatherDisplay:10.37,2013-10-27 16:47:00,
2013-10-27 11:52:00,50.5,34.0,30.00,ESE,122,1.0,6.0,53,0.00,CLR,CLR,0.00,44.0,WeatherDisplay:10.37,2013-10-27 16:52:00,
2013-10-27 11:57:00,51.0,33.0,30.00,SE,136,2.0,7.0,50,0.00,CLR,CLR,0.00,63.0,WeatherDisplay:10.37,2013-10-27 16:57:00,
2013-10-27 12:02:00,51.7,34.1,29.99,SE,132,2.0,8.0,51,0.00,CLR,CLR,0.00,118.0,WeatherDisplay:10.37,2013-10-27 17:02:00,
2013-10-27 12:07:00,51.9,33.8,29.99,SE,141,2.0,5.0,50,0.00,CLR,CLR,0.00,79.0,WeatherDisplay:10.37,2013-10-27 17:07:00,
2013-10-27 12:12:00,52.1,34.5,29.99,SE,141,1.0,3.0,51,0.00,CLR,CLR,0.00,46.0,WeatherDisplay:10.37,2013-10-27 17:12:00,
2013-10-27 12:17:00,52.6,33.5,29.99,SE,125,1.7,5.8,48,0.00,CLR,,0.00,44.0,WeatherDisplay:10.37,2013-10-27 17:17:00,
2013-10-27 12:22:00,53.0,32.8,29.98,SE,136,2.0,5.0,46,0.00,CLR,CLR,0.00,47.0,WeatherDisplay:10.37,2013-10-27 17:22:00,
2013-10-27 12:27:00,53.5,33.2,29.98,SE,139,2.0,6.0,46,0.00,CLR,CLR,0.00,146.0,WeatherDisplay:10.37,2013-10-27 17:27:00,
2013-10-27 12:32:00,53.6,33.8,29.97,ESE,119,0.0,9.0,47,0.00,CLR,CLR,0.00,72.0,WeatherDisplay:10.37,2013-10-27 17:32:00,
2013-10-27 12:37:00,54.1,33.8,29.97,SE,132,5.0,10.0,46,0.00,CLR,CLR,0.00,58.0,WeatherDisplay:10.37,2013-10-27 17:37:00,
2013-10-27 12:42:00,54.2,33.9,29.97,SE,133,2.0,10.0,46,0.00,CLR,CLR,0.00,113.0,WeatherDisplay:10.37,2013-10-27 17:42:00,
2013-10-27 12:47:00,54.9,35.0,29.96,ESE,123,2.0,7.0,47,0.00,CLR,CLR,0.00,615.0,WeatherDisplay:10.37,2013-10-27 17:47:00,
2013-10-27 12:52:00,55.7,34.6,29.96,SE,131,2.0,4.0,45,0.00,CLR,CLR,0.00,619.0,WeatherDisplay:10.37,2013-10-27 17:52:00,
2013-10-27 12:57:00,56.1,35.0,29.95,SE,146,1.0,9.0,45,0.00,CLR,CLR,0.00,621.0,WeatherDisplay:10.37,2013-10-27 17:57:00,
2013-10-27 13:02:00,56.2,33.9,29.95,SE,127,1.0,7.0,43,0.00,CLR,CLR,0.00,622.0,WeatherDisplay:10.37,2013-10-27 18:02:00,
2013-10-27 13:07:00,57.1,36.5,29.95,SE,128,2.0,4.0,46,0.00,CLR,CLR,0.00,622.0,WeatherDisplay:10.37,2013-10-27 18:07:00,
2013-10-27 13:12:00,56.7,33.8,29.94,ESE,120,0.0,9.0,42,0.00,CLR,CLR,0.00,624.0,WeatherDisplay:10.37,2013-10-27 18:12:00,
2013-10-27 13:17:00,57.5,35.2,29.94,ESE,103,1.0,5.0,43,0.00,CLR,CLR,0.00,624.0,WeatherDisplay:10.37,2013-10-27 18:17:00,
2013-10-27 13:22:00,57.9,35.5,29.94,SE,124,1.0,4.0,43,0.00,CLR,CLR,0.00,621.0,WeatherDisplay:10.37,2013-10-27 18:22:00,
2013-10-27 13:27:00,57.9,34.9,29.93,SSE,156,0.0,10.0,42,0.00,CLR,CLR,0.00,621.0,WeatherDisplay:10.37,2013-10-27 18:27:00,
2013-10-27 13:32:00,58.3,35.9,29.93,SSE,156,1.0,3.0,43,0.00,CLR,CLR,0.00,617.0,WeatherDisplay:10.37,2013-10-27 18:32:00,
2013-10-27 13:37:00,58.8,35.7,29.93,SSW,196,1.0,4.0,42,0.00,CLR,CLR,0.00,615.0,WeatherDisplay:10.37,2013-10-27 18:37:00,
2013-10-27 13:42:00,58.8,35.2,29.93,WSW,243,2.0,4.0,41,0.00,CLR,CLR,0.00,612.0,WeatherDisplay:10.37,2013-10-27 18:42:00,
2013-10-27 13:47:00,59.4,35.1,29.92,SE,127,1.8,5.8,40,0.00,CLR,,0.00,605.0,WeatherDisplay:10.37,2013-10-27 18:47:00,
2013-10-27 13:52:00,59.6,35.9,29.92,ESE,114,1.0,3.0,41,0.00,CLR,CLR,0.00,603.0,WeatherDisplay:10.37,2013-10-27 18:52:00,
2013-10-27 13:57:00,59.8,36.0,29.92,SSE,153,1.0,5.0,41,0.00,CLR,CLR,0.00,598.0,WeatherDisplay:10.37,2013-10-27 18:57:00,
2013-10-27 14:02:00,59.8,34.1,29.92,SE,143,2.0,6.0,38,0.00,CLR,CLR,0.00,594.0,WeatherDisplay:10.37,2013-10-27 19:02:00,
2013-10-27 14:07:00,60.2,36.4,29.91,SE,139,0.0,5.0,41,0.00,CLR,CLR,0.00,585.0,WeatherDisplay:10.37,2013-10-27 19:07:00,
2013-10-27 14:12:00,60.4,35.3,29.91,SE,125,1.0,4.0,39,0.00,CLR,CLR,0.00,578.0,WeatherDisplay:10.37,2013-10-27 19:12:00,
2013-10-27 14:17:00,60.9,36.4,29.91,ESE,116,1.0,3.0,40,0.00,CLR,CLR,0.00,577.0,WeatherDisplay:10.37,2013-10-27 19:17:00,
2013-10-27 14:22:00,61.1,35.3,29.90,SE,133,2.0,5.0,38,0.00,CLR,CLR,0.00,568.0,WeatherDisplay:10.37,2013-10-27 19:22:00,
2013-10-27 14:27:00,60.8,35.7,29.90,SE,141,0.0,7.0,39,0.00,CLR,CLR,0.00,559.0,WeatherDisplay:10.37,2013-10-27 19:27:00,
2013-10-27 14:32:00,61.4,38.1,29.90,SE,140,0.0,2.0,42,0.00,CLR,CLR,0.00,552.0,WeatherDisplay:10.37,2013-10-27 19:32:00,
2013-10-27 14:37:00,61.4,34.9,29.90,SE,145,2.0,8.0,37,0.00,CLR,CLR,0.00,545.0,WeatherDisplay:10.37,2013-10-27 19:37:00,
2013-10-27 14:42:00,61.2,34.0,29.90,SE,130,2.6,4.6,36,0.00,CLR,,0.00,536.0,WeatherDisplay:10.37,2013-10-27 19:42:00,
2013-10-27 14:47:00,61.1,35.3,29.89,SE,140,0.0,3.0,38,0.00,CLR,CLR,0.00,524.0,WeatherDisplay:10.37,2013-10-27 19:47:00,
2013-10-27 14:52:00,61.2,35.4,29.89,SE,141,0.0,2.0,38,0.00,CLR,CLR,0.00,461.0,WeatherDisplay:10.37,2013-10-27 19:52:00,
2013-10-27 14:57:00,61.1,34.6,29.89,South,186,1.0,5.0,37,0.00,CLR,CLR,0.00,478.0,WeatherDisplay:10.37,2013-10-27 19:57:00,
2013-10-27 15:02:00,61.0,35.2,29.89,SSW,197,0.0,3.0,38,0.00,CLR,CLR,0.00,88.0,WeatherDisplay:10.37,2013-10-27 20:02:00,
2013-10-27 15:07:00,61.0,35.2,29.89,SSW,208,1.0,5.0,38,0.00,CLR,CLR,0.00,84.0,WeatherDisplay:10.37,2013-10-27 20:07:00,
2013-10-27 15:12:00,61.4,34.9,29.89,SSE,149,1.0,4.0,37,0.00,CLR,CLR,0.00,51.0,WeatherDisplay:10.37,2013-10-27 20:12:00,
2013-10-27 15:17:00,61.2,34.7,29.88,SSE,160,1.0,8.0,37,0.00,CLR,CLR,0.00,70.0,WeatherDisplay:10.37,2013-10-27 20:17:00,
2013-10-27 15:22:00,61.2,35.4,29.89,SSE,153,2.0,4.0,38,0.00,CLR,CLR,0.00,65.0,WeatherDisplay:10.37,2013-10-27 20:22:00,
2013-10-27 15:27:00,61.1,33.9,29.88,SE,127,3.0,8.0,36,0.00,CLR,CLR,0.00,72.0,WeatherDisplay:10.37,2013-10-27 20:27:00,
2013-10-27 15:32:00,60.8,36.3,29.88,SE,130,0.0,4.0,40,0.00,CLR,CLR,0.00,44.0,WeatherDisplay:10.37,2013-10-27 20:32:00,
2013-10-27 15:37:00,61.0,35.2,29.88,SE,142,2.0,6.0,38,0.00,CLR,CLR,0.00,42.0,WeatherDisplay:10.37,2013-10-27 20:37:00,
2013-10-27 15:42:00,61.0,34.5,29.88,South,173,2.0,5.0,37,0.00,CLR,CLR,0.00,44.0,WeatherDisplay:10.37,2013-10-27 20:42:00,
2013-10-27 15:47:00,60.7,34.9,29.88,South,180,2.0,7.0,38,0.00,CLR,CLR,0.00,42.0,WeatherDisplay:10.37,2013-10-27 20:47:00,
2013-10-27 15:52:00,60.8,35.7,29.88,SSE,151,0.0,8.0,39,0.00,CLR,CLR,0.00,39.0,WeatherDisplay:10.37,2013-10-27 20:52:00,
2013-10-27 15:57:00,60.9,35.8,29.88,SE,128,1.0,6.0,39,0.00,CLR,CLR,0.00,54.0,WeatherDisplay:10.37,2013-10-27 20:57:00,
2013-10-27 16:02:00,60.9,35.8,29.87,ESE,115,0.0,0.0,39,0.00,CLR,,0.00,42.0,WeatherDisplay:10.37,2013-10-27 21:02:00,
2013-10-27 16:07:00,61.1,35.9,29.88,SE,146,1.0,2.3,39,0.00,CLR,,0.00,33.0,WeatherDisplay:10.37,2013-10-27 21:07:00,
2013-10-27 16:13:00,60.6,36.1,29.87,SE,132,0.6,3.5,40,0.00,CLR,,0.00,32.0,WeatherDisplay:10.37,2013-10-27 21:13:00,
2013-10-27 16:18:00,60.4,35.9,29.87,SSE,168,1.1,4.0,40,0.00,CLR,,0.00,30.0,WeatherDisplay:10.37,2013-10-27 21:18:00,
2013-10-27 16:23:00,60.2,35.8,29.87,SE,136,0.5,3.0,40,0.00,CLR,,0.00,30.0,WeatherDisplay:10.37,2013-10-27 21:23:00,
2013-10-27 16:28:00,60.2,35.8,29.87,SE,136,0.4,1.2,40,0.00,CLR,,0.00,30.0,WeatherDisplay:10.37,2013-10-27 21:28:00,
2013-10-27 16:34:00,59.9,36.1,29.87,SE,146,0.6,3.5,41,0.00,CLR,,0.00,26.0,WeatherDisplay:10.37,2013-10-27 21:34:00,
2013-10-27 16:39:00,60.4,35.3,29.87,SSW,209,2.9,4.0,39,0.00,CLR,,0.00,26.0,WeatherDisplay:10.37,2013-10-27 21:39:00,
2013-10-27 16:44:00,60.5,35.4,29.86,SE,130,2.5,5.8,39,0.00,CLR,,0.00,26.0,WeatherDisplay:10.37,2013-10-27 21:44:00,
2013-10-27 16:49:00,60.5,35.4,29.86,SSW,196,1.2,4.6,39,0.00,CLR,,0.00,23.0,WeatherDisplay:10.37,2013-10-27 21:49:00,
2013-10-27 16:55:00,59.6,36.5,29.86,NNE,32,1.5,3.5,42,0.00,CLR,,0.00,25.0,WeatherDisplay:10.37,2013-10-27 21:55:00,
2013-10-27 17:00:00,59.8,36.0,29.86,SSW,201,1.3,4.6,41,0.00,CLR,,0.00,25.0,WeatherDisplay:10.37,2013-10-27 22:00:00,
2013-10-27 17:05:00,59.6,36.5,29.86,SE,146,0.5,2.3,42,0.00,CLR,,0.00,21.0,WeatherDisplay:10.37,2013-10-27 22:05:00,
2013-10-27 17:10:00,59.8,36.0,29.86,SSE,162,0.3,2.3,41,0.00,CLR,,0.00,21.0,WeatherDisplay:10.37,2013-10-27 22:10:00,
2013-10-27 17:16:00,59.4,36.3,29.86,SE,126,0.0,1.2,42,0.00,CLR,,0.00,19.0,WeatherDisplay:10.37,2013-10-27 22:16:00,
2013-10-27 17:21:00,58.9,36.4,29.86,NNE,32,1.0,2.3,43,0.00,CLR,,0.00,18.0,WeatherDisplay:10.37,2013-10-27 22:21:00,
2013-10-27 17:26:00,58.7,36.2,29.86,NNE,32,0.1,1.2,43,0.00,CLR,,0.00,21.0,WeatherDisplay:10.37,2013-10-27 22:26:00,
2013-10-27 17:31:00,58.6,35.6,29.86,SE,138,1.2,3.5,42,0.00,CLR,,0.00,19.0,WeatherDisplay:10.37,2013-10-27 22:31:00,
2013-10-27 17:37:00,58.1,36.3,29.87,SE,138,0.0,0.0,44,0.00,CLR,,0.00,16.0,WeatherDisplay:10.37,2013-10-27 22:37:00,
2013-10-27 17:42:00,57.9,36.7,29.87,SE,138,0.0,0.0,45,0.00,CLR,,0.00,14.0,WeatherDisplay:10.37,2013-10-27 22:42:00,
2013-10-27 17:47:00,57.6,36.4,29.87,SE,138,0.0,0.0,45,0.00,CLR,,0.00,12.0,WeatherDisplay:10.37,2013-10-27 22:47:00,
2013-10-27 17:52:00,57.2,36.0,29.87,SSE,148,0.2,1.0,45,0.00,CLR,,0.00,11.0,WeatherDisplay:10.37,2013-10-27 22:52:00,
2013-10-27 17:58:00,56.8,36.2,29.87,SSE,148,0.0,0.0,46,0.00,CLR,,0.00,9.0,WeatherDisplay:10.37,2013-10-27 22:58:00,
2013-10-27 18:03:00,56.4,35.9,29.87,SSE,148,0.0,0.0,46,0.00,CLR,,0.00,7.0,WeatherDisplay:10.37,2013-10-27 23:03:00,
2013-10-27 18:08:00,55.9,36.5,29.88,SSE,148,0.0,2.3,48,0.00,CLR,,0.00,5.0,WeatherDisplay:10.37,2013-10-27 23:08:00,
2013-10-27 18:13:00,55.5,36.1,29.88,SSE,148,0.0,0.0,48,0.00,CLR,,0.00,0.0,WeatherDisplay:10.37,2013-10-27 23:13:00,
2013-10-27 18:19:00,55.1,36.3,29.88,SSE,148,0.0,0.0,49,0.00,CLR,,0.00,0.0,WeatherDisplay:10.37,2013-10-27 23:19:00,
2013-10-27 18:24:00,54.4,36.1,29.88,SSE,148,0.0,0.0,50,0.00,CLR,,0.00,0.0,WeatherDisplay:10.37,2013-10-27 23:24:00,
2013-10-27 18:29:00,53.9,36.7,29.88,SSE,148,0.0,0.0,52,0.00,CLR,,0.00,0.0,WeatherDisplay:10.37,2013-10-27 23:29:00,
2013-10-27 18:34:00,53.6,36.4,29.88,SSE,148,0.0,0.0,52,0.00,CLR,,0.00,0.0,WeatherDisplay:10.37,2013-10-27 23:34:00,
2013-10-27 18:40:00,53.3,35.6,29.89,SSE,148,0.4,2.3,51,0.00,CLR,,0.00,0.0,WeatherDisplay:10.37,2013-10-27 23:40:00,
2013-10-27 18:45:00,53.0,35.8,29.89,SSE,148,0.0,0.0,52,0.00,CLR,,0.00,0.0,WeatherDisplay:10.37,2013-10-27 23:45:00,
2013-10-27 18:50:00,52.6,35.9,29.89,SSE,148,0.0,0.0,53,0.00,CLR,,0.00,0.0,WeatherDisplay:10.37,2013-10-27 23:50:00,
2013-10-27 18:55:00,52.2,36.0,29.89,SSE,148,0.0,0.0,54,0.00,CLR,,0.00,0.0,WeatherDisplay:10.37,2013-10-27 23:55:00,
2013-10-27 19:01:00,52.1,35.9,29.90,SSE,148,0.0,0.0,54,0.00,CLR,,0.00,0.0,WeatherDisplay:10.37,2013-10-28 00:01:00,
2013-10-27 19:06:00,51.8,35.7,29.90,SSE,148,0.0,0.0,54,0.00,CLR,,0.00,0.0,WeatherDisplay:10.37,2013-10-28 00:06:00,
2013-10-27 19:11:00,51.4,35.8,29.90,SSE,148,0.4,2.0,55,0.00,CLR,,0.00,0.0,WeatherDisplay:10.37,2013-10-28 00:11:00,
2013-10-27 19:16:00,51.3,35.7,29.90,SSE,148,0.0,0.0,55,0.00,CLR,,0.00,0.0,WeatherDisplay:10.37,2013-10-28 00:16:00,
2013-10-27 19:22:00,51.0,35.8,29.90,SSE,148,0.0,0.0,56,0.00,CLR,CLR,0.00,0.0,WeatherDisplay:10.37,2013-10-28 00:22:00,
2013-10-27 19:27:00,50.8,35.7,29.90,SSE,148,0.0,0.0,56,0.00,CLR,CLR,0.00,0.0,WeatherDisplay:10.37,2013-10-28 00:27:00,
2013-10-27 19:32:00,50.6,35.9,29.91,SSE,148,0.1,1.2,57,0.00,CLR,,0.00,0.0,WeatherDisplay:10.37,2013-10-28 00:32:00,
2013-10-27 19:37:00,50.8,35.7,29.91,SSE,148,0.0,1.0,56,0.00,CLR,CLR,0.00,0.0,WeatherDisplay:10.37,2013-10-28 00:37:00,
2013-10-27 19:42:00,50.6,35.5,29.91,SSE,148,0.0,0.0,56,0.00,CLR,CLR,0.00,0.0,WeatherDisplay:10.37,2013-10-28 00:42:00,
2013-10-27 19:47:00,50.4,35.3,29.91,SSE,148,0.0,0.0,56,0.00,CLR,CLR,0.00,0.0,WeatherDisplay:10.37,2013-10-28 00:47:00,
2013-10-27 19:52:00,50.1,35.9,29.91,SSE,148,0.0,0.0,58,0.00,CLR,CLR,0.00,0.0,WeatherDisplay:10.37,2013-10-28 00:52:00,
2013-10-27 19:57:00,49.8,35.6,29.92,SSE,148,0.0,0.0,58,0.00,CLR,CLR,0.00,0.0,WeatherDisplay:10.37,2013-10-28 00:57:00,
2013-10-27 20:02:00,49.7,36.0,29.92,SSE,148,0.0,0.0,59,0.00,CLR,CLR,0.00,0.0,WeatherDisplay:10.37,2013-10-28 01:02:00,
2013-10-27 20:07:00,49.6,35.8,29.92,SSE,148,0.0,0.0,59,0.00,CLR,CLR,0.00,0.0,WeatherDisplay:10.37,2013-10-28 01:07:00,
2013-10-27 20:12:00,49.4,35.7,29.92,SSE,148,0.0,0.0,59,0.00,CLR,CLR,0.00,0.0,WeatherDisplay:10.37,2013-10-28 01:12:00,
2013-10-27 20:17:00,49.0,35.7,29.92,SSE,148,0.0,0.0,60,0.00,CLR,CLR,0.00,0.0,WeatherDisplay:10.37,2013-10-28 01:17:00,
2013-10-27 20:22:00,48.6,35.7,29.92,SSE,148,0.0,0.0,61,0.00,CLR,CLR,0.00,0.0,WeatherDisplay:10.37,2013-10-28 01:22:00,
2013-10-27 20:27:00,48.5,35.7,29.92,SSE,148,0.0,0.0,61,0.00,CLR,,0.00,0.0,WeatherDisplay:10.37,2013-10-28 01:27:00,
2013-10-27 20:32:00,48.3,35.5,29.92,SSE,148,0.0,0.0,61,0.00,CLR,CLR,0.00,0.0,WeatherDisplay:10.37,2013-10-28 01:32:00,
2013-10-27 20:37:00,48.9,35.6,29.92,SE,145,0.0,2.0,60,0.00,CLR,CLR,0.00,0.0,WeatherDisplay:10.37,2013-10-28 01:37:00,
2013-10-27 20:42:00,48.6,35.3,29.92,SE,139,0.0,0.0,60,0.00,CLR,CLR,0.00,0.0,WeatherDisplay:10.37,2013-10-28 01:42:00,
2013-10-27 20:47:00,48.7,35.4,29.93,SE,138,0.0,1.0,60,0.00,CLR,CLR,0.00,0.0,WeatherDisplay:10.37,2013-10-28 01:47:00,
2013-10-27 20:52:00,49.0,35.3,29.93,SE,138,0.0,1.0,59,0.00,CLR,CLR,0.00,0.0,WeatherDisplay:10.37,2013-10-28 01:52:00,
2013-10-27 20:57:00,49.0,35.8,29.93,SE,138,0.0,0.0,60,0.00,CLR,CLR,0.00,0.0,WeatherDisplay:10.37,2013-10-28 01:57:00,
2013-10-27 21:02:00,48.7,35.5,29.93,SE,138,0.0,0.0,60,0.00,CLR,CLR,0.00,0.0,WeatherDisplay:10.37,2013-10-28 02:02:00,
2013-10-27 21:07:00,48.8,35.1,29.93,SE,138,0.0,0.0,59,0.00,CLR,CLR,0.00,0.0,WeatherDisplay:10.37,2013-10-28 02:07:00,
2013-10-27 21:12:00,48.8,35.1,29.93,SE,138,0.0,0.0,59,0.00,CLR,CLR,0.00,0.0,WeatherDisplay:10.37,2013-10-28 02:12:00,
2013-10-27 21:17:00,48.6,35.3,29.93,SE,138,0.0,0.0,60,0.00,CLR,CLR,0.00,0.0,WeatherDisplay:10.37,2013-10-28 02:17:00,
2013-10-27 21:22:00,48.1,35.3,29.94,SE,138,0.0,0.0,61,0.00,CLR,CLR,0.00,0.0,WeatherDisplay:10.37,2013-10-28 02:22:00,
2013-10-27 21:27:00,47.8,35.0,29.94,SE,138,0.0,0.0,61,0.00,CLR,CLR,0.00,0.0,WeatherDisplay:10.37,2013-10-28 02:27:00,
2013-10-27 21:32:00,47.6,35.2,29.94,SE,138,0.0,0.0,62,0.00,CLR,CLR,0.00,0.0,WeatherDisplay:10.37,2013-10-28 02:32:00,
2013-10-27 21:37:00,47.4,35.0,29.94,SE,138,0.0,0.0,62,0.00,CLR,CLR,0.00,0.0,WeatherDisplay:10.37,2013-10-28 02:37:00,
2013-10-27 21:42:00,47.0,35.0,29.95,SE,138,0.0,0.0,63,0.00,CLR,CLR,0.00,0.0,WeatherDisplay:10.37,2013-10-28 02:42:00,
2013-10-27 21:47:00,46.7,35.2,29.95,SE,138,0.0,0.0,64,0.00,CLR,CLR,0.00,0.0,WeatherDisplay:10.37,2013-10-28 02:47:00,
2013-10-27 21:52:00,46.4,35.2,29.95,SE,138,0.0,0.0,65,0.00,CLR,CLR,0.00,0.0,WeatherDisplay:10.37,2013-10-28 02:52:00,
2013-10-27 21:57:00,46.1,35.0,29.95,SE,138,0.0,0.0,65,0.00,CLR,,0.00,0.0,WeatherDisplay:10.37,2013-10-28 02:57:00,
2013-10-27 22:02:00,46.0,34.9,29.95,SE,138,0.0,0.0,65,0.00,CLR,CLR,0.00,0.0,WeatherDisplay:10.37,2013-10-28 03:02:00,
2013-10-27 22:07:00,45.6,34.9,29.95,SE,138,0.0,0.0,66,0.00,CLR,CLR,0.00,0.0,WeatherDisplay:10.37,2013-10-28 03:07:00,
2013-10-27 22:12:00,45.5,35.2,29.96,SE,138,0.0,0.0,67,0.00,CLR,CLR,0.00,0.0,WeatherDisplay:10.37,2013-10-28 03:12:00,
2013-10-27 22:17:00,45.2,35.2,29.96,SE,138,0.0,0.0,68,0.00,CLR,CLR,0.00,0.0,WeatherDisplay:10.37,2013-10-28 03:17:00,
2013-10-27 22:22:00,44.9,35.0,29.96,SE,138,0.0,0.0,68,0.00,CLR,CLR,0.00,0.0,WeatherDisplay:10.37,2013-10-28 03:22:00,
2013-10-27 22:27:00,44.9,34.9,29.96,SE,138,0.0,0.0,68,0.00,CLR,CLR,0.00,0.0,WeatherDisplay:10.37,2013-10-28 03:27:00,
2013-10-27 22:32:00,44.7,35.1,29.96,SE,138,0.0,0.0,69,0.00,CLR,CLR,0.00,0.0,WeatherDisplay:10.37,2013-10-28 03:32:00,
2013-10-27 22:37:00,44.2,34.7,29.96,SE,138,0.0,0.0,69,0.00,CLR,CLR,0.00,0.0,WeatherDisplay:10.37,2013-10-28 03:37:00,
2013-10-27 22:42:00,44.3,34.8,29.96,SE,138,0.0,0.0,69,0.00,CLR,CLR,0.00,0.0,WeatherDisplay:10.37,2013-10-28 03:42:00,
2013-10-27 22:47:00,44.3,34.8,29.97,SE,138,0.0,0.0,69,0.00,CLR,CLR,0.00,0.0,WeatherDisplay:10.37,2013-10-28 03:47:00,
2013-10-27 22:52:00,44.2,34.7,29.97,SE,138,0.0,0.0,69,0.00,CLR,CLR,0.00,0.0,WeatherDisplay:10.37,2013-10-28 03:52:00,
2013-10-27 22:57:00,44.2,34.7,29.97,SE,138,0.0,0.0,69,0.00,CLR,CLR,0.00,0.0,WeatherDisplay:10.37,2013-10-28 03:57:00,
2013-10-27 23:01:00,44.3,34.8,29.97,SE,138,0.0,0.0,69,0.00,CLR,,0.00,0.0,WeatherDisplay:10.37,2013-10-28 04:01:00,
2013-10-27 23:02:00,44.3,34.8,29.97,SE,138,0.0,0.0,69,0.00,CLR,CLR,0.00,0.0,WeatherDisplay:10.37,2013-10-28 04:02:00,
2013-10-27 23:03:00,44.4,34.9,29.97,SE,138,0.0,0.0,69,0.00,CLR,,0.00,0.0,WeatherDisplay:10.37,2013-10-28 04:03:00,
2013-10-27 23:06:00,44.3,34.4,29.97,SE,138,0.0,0.0,68,0.00,CLR,,0.00,0.0,WeatherDisplay:10.37,2013-10-28 04:06:00,
2013-10-27 23:11:00,44.2,34.7,29.97,SE,138,0.0,0.0,69,0.00,CLR,,0.00,0.0,WeatherDisplay:10.37,2013-10-28 04:11:00,
2013-10-27 23:16:00,43.6,35.2,29.98,SE,138,0.3,2.3,72,0.00,CLR,,0.00,0.0,WeatherDisplay:10.37,2013-10-28 04:16:00,
2013-10-27 23:21:00,43.4,35.0,29.99,SE,138,0.3,2.3,72,0.00,CLR,,0.00,0.0,WeatherDisplay:10.37,2013-10-28 04:21:00,
2013-10-27 23:27:00,44.5,35.3,29.99,SE,138,0.3,2.3,70,0.00,CLR,,0.00,0.0,WeatherDisplay:10.37,2013-10-28 04:27:00,
2013-10-27 23:32:00,45.0,35.0,29.98,ESE,104,1.0,3.0,68,0.00,CLR,CLR,0.00,0.0,WeatherDisplay:10.37,2013-10-28 04:32:00,
2013-10-27 23:37:00,45.1,35.2,30.00,ENE,70,0.0,2.0,68,0.00,CLR,CLR,0.00,0.0,WeatherDisplay:10.37,2013-10-28 04:37:00,
2013-10-27 23:42:00,45.1,35.2,30.00,NE,35,0.0,2.0,68,0.00,CLR,CLR,0.00,0.0,WeatherDisplay:10.37,2013-10-28 04:42:00,
2013-10-27 23:47:00,44.6,35.1,30.00,NE,34,0.0,0.0,69,0.00,CLR,CLR,0.00,0.0,WeatherDisplay:10.37,2013-10-28 04:47:00,
2013-10-27 23:52:00,44.1,35.3,30.00,NE,34,0.0,1.0,71,0.00,CLR,CLR,0.00,0.0,WeatherDisplay:10.37,2013-10-28 04:52:00,
2013-10-27 23:57:00,43.7,34.9,30.00,NE,34,0.0,0.0,71,0.00,CLR,CLR,0.00,0.0,WeatherDisplay:10.37,2013-10-28 04:57:00,